| time (UTC) | temp C | wind direction | speed KPH | gust KPH | rain 1hr cm | rain 24hr cm | rain mn cm | humidity % | barometer mb |
| 20260507114124 | 22 | 140 | 1.6 | 8.0 | 0.00 | 0.30 | 0.00 | 59 | 1012.9 |
| 20260507113624 | 21 | 161 | 1.6 | 3.2 | 0.00 | 0.30 | 0.00 | 59 | 1013.0 |
| 20260507113123 | 21 | 228 | 4.8 | 9.7 | 0.00 | 0.30 | 0.00 | 61 | 1013.1 |
| 20260507112623 | 21 | 223 | 1.6 | 4.8 | 0.00 | 0.30 | 0.00 | 61 | 1013.1 |
| 20260507112122 | 20 | 158 | 3.2 | 4.8 | 0.00 | 0.30 | 0.00 | 62 | 1013.1 |
| 20260507111622 | 20 | 225 | 1.6 | 4.8 | 0.00 | 0.30 | 0.00 | 61 | 1013.2 |
| 20260507111122 | 20 | 232 | 1.6 | 4.8 | 0.00 | 0.30 | 0.00 | 61 | 1013.3 |
| 20260507110621 | 21 | 218 | 6.4 | 8.0 | 0.00 | 0.30 | 0.00 | 61 | 1013.2 |
| 20260507110121 | 21 | 146 | 0.0 | 1.6 | 0.00 | 0.30 | 0.00 | 58 | 1013.3 |
| 20260507105620 | 21 | 77 | 0.0 | 1.6 | 0.00 | 0.30 | 0.00 | 57 | 1013.3 |
| 20260507105120 | 21 | 245 | 0.0 | 3.2 | 0.00 | 0.30 | 0.00 | 59 | 1013.4 |
| 20260507104620 | 21 | 271 | 4.8 | 8.0 | 0.00 | 0.30 | 0.00 | 60 | 1013.6 |
| 20260507104119 | 21 | 246 | 3.2 | 8.0 | 0.00 | 0.30 | 0.00 | 59 | 1013.5 |
| 20260507103118 | 20 | 231 | 1.6 | 8.0 | 0.00 | 0.30 | 0.00 | 59 | 1013.6 |
| 20260507102618 | 20 | 226 | 3.2 | 6.4 | 0.00 | 0.30 | 0.00 | 61 | 1013.6 |
| 20260507102117 | 20 | 235 | 3.2 | 8.0 | 0.00 | 0.30 | 0.00 | 60 | 1013.7 |
| 20260507101617 | 20 | 233 | 0.0 | 0.0 | 0.00 | 0.30 | 0.00 | 59 | 1013.7 |
| 20260507101117 | 21 | 188 | 1.6 | 6.4 | 0.00 | 0.30 | 0.00 | 59 | 1013.8 |
| 20260507100616 | 21 | 232 | 1.6 | 3.2 | 0.00 | 0.36 | 0.00 | 57 | 1013.9 |
| 20260507100116 | 20 | 252 | 1.6 | 1.6 | 0.00 | 0.36 | 0.00 | 60 | 1013.9 |
| 20260507095615 | 20 | 244 | 1.6 | 4.8 | 0.00 | 0.36 | 0.00 | 60 | 1013.9 |
| 20260507095115 | 20 | 245 | 3.2 | 8.0 | 0.00 | 0.36 | 0.00 | 60 | 1013.9 |
| 20260507094615 | 20 | 231 | 1.6 | 6.4 | 0.00 | 0.36 | 0.00 | 62 | 1013.8 |
| 20260507094114 | 20 | 299 | 3.2 | 4.8 | 0.00 | 0.38 | 0.00 | 61 | 1013.9 |
| 20260507093113 | 19 | 273 | 1.6 | 3.2 | 0.00 | 0.38 | 0.00 | 65 | 1013.9 |
| 20260507092613 | 20 | 263 | 3.2 | 6.4 | 0.00 | 0.38 | 0.00 | 64 | 1013.9 |
| 20260507092113 | 20 | 271 | 3.2 | 8.0 | 0.00 | 0.38 | 0.00 | 63 | 1013.9 |
| 20260507091612 | 20 | 262 | 1.6 | 3.2 | 0.00 | 0.38 | 0.00 | 60 | 1013.8 |
| 20260507091112 | 19 | 240 | 1.6 | 4.8 | 0.00 | 0.38 | 0.00 | 65 | 1013.8 |
| 20260507090111 | 20 | 258 | 0.0 | 1.6 | 0.00 | 0.38 | 0.00 | 67 | 1013.9 |
| 20260507085610 | 20 | 236 | 1.6 | 3.2 | 0.00 | 0.38 | 0.00 | 67 | 1013.7 |
| 20260507085110 | 20 | 210 | 0.0 | 4.8 | 0.00 | 0.38 | 0.00 | 69 | 1013.8 |
| 20260507084610 | 18 | 230 | 0.0 | 4.8 | 0.00 | 0.38 | 0.00 | 73 | 1013.8 |
| 20260507084109 | 18 | 237 | 3.2 | 4.8 | 0.00 | 0.38 | 0.00 | 72 | 1013.7 |
| 20260507083609 | 18 | 226 | 0.0 | 1.6 | 0.00 | 0.38 | 0.00 | 74 | 1013.7 |
| 20260507083108 | 18 | 258 | 1.6 | 4.8 | 0.00 | 0.38 | 0.00 | 73 | 1013.8 |
| 20260507082608 | 18 | 268 | 1.6 | 3.2 | 0.00 | 0.38 | 0.00 | 73 | 1013.7 |
| 20260507082108 | 18 | 292 | 1.6 | 3.2 | 0.00 | 0.38 | 0.00 | 75 | 1013.6 |
| 20260507081607 | 17 | 252 | 0.0 | 0.0 | 0.00 | 0.38 | 0.00 | 77 | 1013.7 |
| 20260507081107 | 17 | 239 | 0.0 | 1.6 | 0.00 | 0.38 | 0.00 | 81 | 1013.7 |
| 20260507080606 | 17 | 238 | 1.6 | 1.6 | 0.00 | 0.38 | 0.00 | 80 | 1013.7 |
| 20260507080106 | 17 | 223 | 1.6 | 6.4 | 0.00 | 0.38 | 0.00 | 80 | 1013.6 |
| 20260507075605 | 17 | 233 | 0.0 | 3.2 | 0.00 | 0.38 | 0.00 | 82 | 1013.6 |
| 20260507075105 | 17 | 233 | 3.2 | 4.8 | 0.00 | 0.38 | 0.00 | 83 | 1013.6 |
| 20260507074733 | 18 | 229 | 1.6 | 3.2 | 0.00 | 0.38 | 0.00 | 80 | 1013.5 |
| 20260507074605 | 17 | 266 | 1.6 | 1.6 | 0.00 | 0.38 | 0.00 | 82 | 1013.6 |
| 20260507074104 | 18 | 229 | 1.6 | 3.2 | 0.00 | 0.38 | 0.00 | 80 | 1013.5 |
| 20260507073604 | 17 | 227 | 0.0 | 1.6 | 0.00 | 0.38 | 0.00 | 82 | 1013.5 |
| 20260507073103 | 16 | 227 | 0.0 | 4.8 | 0.00 | 0.38 | 0.00 | 87 | 1013.5 |
| 20260507072603 | 16 | 240 | 1.6 | 4.8 | 0.00 | 0.38 | 0.00 | 88 | 1013.6 |
| 20260507072103 | 16 | 236 | 4.8 | 8.0 | 0.00 | 0.38 | 0.00 | 88 | 1013.5 |
| 20260507071602 | 16 | 235 | 3.2 | 6.4 | 0.00 | 0.38 | 0.00 | 87 | 1013.3 |
| 20260507071102 | 17 | 261 | 4.8 | 6.4 | 0.00 | 0.38 | 0.00 | 84 | 1013.3 |
| 20260507070601 | 18 | 289 | 0.0 | 1.6 | 0.00 | 0.38 | 0.00 | 77 | 1013.2 |
| 20260507070101 | 18 | 344 | 0.0 | 0.0 | 0.00 | 0.38 | 0.00 | 78 | 1013.2 |
| 20260507065600 | 18 | 309 | 0.0 | 3.2 | 0.00 | 0.38 | 0.00 | 77 | 1013.2 |
| 20260507065100 | 18 | 4 | 0.0 | 1.6 | 0.00 | 0.38 | 0.00 | 77 | 1013.3 |
| 20260507064600 | 18 | 53 | 0.0 | 0.0 | 0.00 | 0.38 | 0.00 | 77 | 1013.2 |
| 20260507064059 | 17 | 53 | 3.2 | 3.2 | 0.00 | 0.38 | 0.00 | 81 | 1013.1 |
| 20260507063559 | 17 | 53 | 0.0 | 0.0 | 0.00 | 0.38 | 0.00 | 82 | 1013.1 |
| 20260507063058 | 17 | 54 | 0.0 | 1.6 | 0.00 | 0.38 | 0.00 | 81 | 1013.1 |
| 20260507062558 | 17 | 13 | 0.0 | 3.2 | 0.00 | 0.38 | 0.00 | 83 | 1013.1 |
| 20260507062058 | 18 | 275 | 0.0 | 0.0 | 0.00 | 0.38 | 0.00 | 79 | 1013.1 |
| 20260507061557 | 18 | 276 | 0.0 | 0.0 | 0.00 | 0.38 | 0.00 | 77 | 1013.1 |
| 20260507061057 | 17 | 270 | 0.0 | 0.0 | 0.00 | 0.38 | 0.00 | 82 | 1013.2 |
| 20260507060557 | 17 | 270 | 0.0 | 0.0 | 0.00 | 0.38 | 0.00 | 84 | 1013.1 |
| 20260507060057 | 17 | 270 | 0.0 | 0.0 | 0.00 | 0.38 | 0.00 | 84 | 1013.1 |
| 20260507055557 | 16 | 270 | 0.0 | 0.0 | 0.00 | 0.38 | 0.00 | 90 | 1013.0 |
| 20260507055057 | 15 | 270 | 0.0 | 0.0 | 0.00 | 0.38 | 0.00 | 93 | 1013.0 |
| 20260507054557 | 15 | 270 | 0.0 | 0.0 | 0.00 | 0.43 | 0.00 | 94 | 1012.9 |
| 20260507054056 | 14 | 270 | 0.0 | 1.6 | 0.00 | 0.43 | 0.00 | 95 | 1012.8 |
| 20260507053557 | 14 | 276 | 0.0 | 0.0 | 0.00 | 0.43 | 0.00 | 95 | 1012.8 |
| 20260507053057 | 13 | 276 | 0.0 | 0.0 | 0.00 | 0.43 | 0.00 | 96 | 1012.8 |
| 20260507052557 | 13 | 276 | 0.0 | 1.6 | 0.00 | 0.43 | 0.00 | 96 | 1012.8 |
| 20260507052057 | 13 | 276 | 1.6 | 1.6 | 0.00 | 0.43 | 0.00 | 95 | 1012.8 |
| 20260507051557 | 13 | 282 | 0.0 | 0.0 | 0.00 | 0.43 | 0.00 | 96 | 1012.7 |
| 20260507051057 | 13 | 282 | 0.0 | 0.0 | 0.00 | 0.43 | 0.00 | 96 | 1012.7 |
| 20260507050557 | 13 | 282 | 0.0 | 0.0 | 0.00 | 0.43 | 0.00 | 96 | 1012.6 |
| 20260507050057 | 13 | 282 | 0.0 | 0.0 | 0.00 | 0.43 | 0.00 | 96 | 1012.5 |
| 20260507045557 | 13 | 282 | 0.0 | 0.0 | 0.00 | 0.43 | 0.00 | 96 | 1012.6 |
| 20260507045057 | 13 | 282 | 0.0 | 0.0 | 0.00 | 0.46 | 0.00 | 96 | 1012.5 |
| 20260507044557 | 13 | 282 | 0.0 | 0.0 | 0.00 | 0.46 | 0.00 | 96 | 1012.3 |
| 20260507044057 | 13 | 282 | 0.0 | 0.0 | 0.00 | 0.46 | 0.00 | 96 | 1012.4 |
| 20260507043558 | 12 | 282 | 0.0 | 1.6 | 0.00 | 0.46 | 0.00 | 96 | 1012.3 |
| 20260507043057 | 12 | 285 | 0.0 | 0.0 | 0.00 | 0.46 | 0.00 | 96 | 1012.3 |
| 20260507042557 | 13 | 285 | 0.0 | 0.0 | 0.00 | 0.46 | 0.00 | 96 | 1012.2 |
| 20260507042057 | 13 | 285 | 0.0 | 0.0 | 0.00 | 0.46 | 0.00 | 96 | 1012.1 |
| 20260507041557 | 12 | 285 | 0.0 | 0.0 | 0.00 | 0.46 | 0.00 | 96 | 1012.1 |
| 20260507041057 | 12 | 285 | 0.0 | 0.0 | 0.00 | 0.46 | 0.00 | 96 | 1011.9 |
| 20260507040557 | 12 | 285 | 0.0 | 0.0 | 0.00 | 0.46 | 0.00 | 96 | 1011.9 |
| 20260507040057 | 12 | 285 | 0.0 | 0.0 | 0.00 | 0.46 | 0.00 | 96 | 1011.9 |
| 20260507035557 | 12 | 285 | 0.0 | 0.0 | 0.00 | 0.46 | 0.00 | 96 | 1011.9 |
| 20260507035057 | 12 | 285 | 0.0 | 0.0 | 0.00 | 0.46 | 0.00 | 96 | 1011.8 |
| 20260507034557 | 12 | 285 | 0.0 | 0.0 | 0.00 | 0.46 | 0.00 | 96 | 1011.8 |
| 20260507034057 | 12 | 285 | 0.0 | 0.0 | 0.00 | 0.46 | 0.00 | 96 | 1011.7 |
| 20260507033556 | 12 | 285 | 0.0 | 0.0 | 0.00 | 0.46 | 0.00 | 96 | 1011.7 |
| 20260507033056 | 12 | 285 | 0.0 | 0.0 | 0.00 | 0.46 | 0.00 | 96 | 1011.8 |
| 20260507032556 | 12 | 285 | 0.0 | 0.0 | 0.00 | 0.46 | 0.00 | 96 | 1011.8 |
| 20260507032055 | 12 | 285 | 0.0 | 0.0 | 0.00 | 0.46 | 0.00 | 96 | 1011.8 |
| 20260507031555 | 12 | 285 | 0.0 | 0.0 | 0.00 | 0.46 | 0.00 | 96 | 1011.8 |
| 20260507031055 | 12 | 285 | 0.0 | 0.0 | 0.00 | 0.46 | 0.00 | 96 | 1011.8 |
| 20260507030555 | 12 | 285 | 0.0 | 0.0 | 0.00 | 0.46 | 0.00 | 96 | 1011.8 |
| 20260507030055 | 12 | 285 | 0.0 | 0.0 | 0.00 | 0.46 | 0.00 | 96 | 1011.7 |
| 20260507025554 | 12 | 285 | 0.0 | 0.0 | 0.00 | 0.46 | 0.00 | 96 | 1011.7 |
| 20260507025054 | 12 | 285 | 0.0 | 0.0 | 0.00 | 0.46 | 0.00 | 96 | 1011.7 |
| 20260507024554 | 12 | 285 | 0.0 | 0.0 | 0.00 | 0.46 | 0.00 | 96 | 1011.7 |
| 20260507024054 | 13 | 285 | 0.0 | 0.0 | 0.00 | 0.46 | 0.00 | 96 | 1011.7 |
| 20260507023554 | 13 | 285 | 0.0 | 0.0 | 0.00 | 0.46 | 0.00 | 96 | 1011.7 |
| 20260507023054 | 13 | 285 | 0.0 | 0.0 | 0.00 | 0.46 | 0.00 | 96 | 1011.6 |
| 20260507022554 | 13 | 285 | 0.0 | 0.0 | 0.00 | 0.46 | 0.00 | 96 | 1011.7 |
| 20260507022054 | 13 | 285 | 0.0 | 0.0 | 0.00 | 0.46 | 0.00 | 96 | 1011.7 |
| 20260507021554 | 13 | 285 | 0.0 | 0.0 | 0.00 | 0.46 | 0.00 | 96 | 1011.6 |
| 20260507021054 | 13 | 285 | 0.0 | 0.0 | 0.00 | 0.46 | 0.00 | 96 | 1011.7 |
| 20260507020554 | 13 | 285 | 0.0 | 0.0 | 0.00 | 0.46 | 0.00 | 96 | 1011.7 |
| 20260507020054 | 13 | 285 | 0.0 | 0.0 | 0.00 | 0.46 | 0.00 | 96 | 1011.6 |
| 20260507015553 | 13 | 285 | 0.0 | 0.0 | 0.00 | 0.46 | 0.00 | 96 | 1011.6 |
| 20260507015053 | 13 | 285 | 0.0 | 0.0 | 0.00 | 0.46 | 0.00 | 96 | 1011.5 |
| 20260507014553 | 13 | 285 | 0.0 | 0.0 | 0.00 | 0.46 | 0.00 | 96 | 1011.4 |
| 20260507014053 | 13 | 285 | 0.0 | 1.6 | 0.00 | 0.46 | 0.00 | 96 | 1011.4 |
| 20260507013553 | 13 | 294 | 1.6 | 1.6 | 0.00 | 0.46 | 0.00 | 96 | 1011.6 |
| 20260507013053 | 13 | 300 | 0.0 | 0.0 | 0.00 | 0.46 | 0.00 | 96 | 1011.6 |
| 20260507012552 | 13 | 300 | 0.0 | 0.0 | 0.00 | 0.46 | 0.00 | 96 | 1011.6 |
| 20260507012052 | 13 | 294 | 0.0 | 0.0 | 0.00 | 0.46 | 0.00 | 95 | 1011.6 |
| 20260507011551 | 13 | 294 | 0.0 | 0.0 | 0.00 | 0.46 | 0.00 | 95 | 1011.6 |
| 20260507011051 | 13 | 294 | 0.0 | 3.2 | 0.00 | 0.46 | 0.00 | 95 | 1011.7 |
| 20260507010551 | 14 | 299 | 0.0 | 0.0 | 0.00 | 0.46 | 0.00 | 95 | 1011.7 |
| 20260507010051 | 14 | 299 | 0.0 | 0.0 | 0.00 | 0.46 | 0.00 | 95 | 1011.6 |
| 20260507005551 | 14 | 299 | 0.0 | 1.6 | 0.00 | 0.46 | 0.00 | 95 | 1011.6 |
| 20260507005051 | 14 | 288 | 3.2 | 4.8 | 0.00 | 0.46 | 0.00 | 95 | 1011.6 |
| 20260507004551 | 14 | 288 | 0.0 | 1.6 | 0.00 | 0.46 | 0.00 | 94 | 1011.7 |
| 20260507004051 | 14 | 354 | 0.0 | 3.2 | 0.00 | 0.46 | 0.00 | 94 | 1011.7 |
| 20260507003551 | 14 | 72 | 1.6 | 1.6 | 0.00 | 0.46 | 0.00 | 94 | 1011.6 |
| 20260507003051 | 14 | 72 | 0.0 | 0.0 | 0.00 | 0.46 | 0.00 | 94 | 1011.5 |
| 20260507002551 | 14 | 78 | 0.0 | 0.0 | 0.00 | 0.46 | 0.00 | 94 | 1011.5 |
| 20260507002051 | 14 | 81 | 3.2 | 4.8 | 0.00 | 0.46 | 0.00 | 94 | 1011.4 |
| 20260507001636 | 14 | 73 | 1.6 | 3.2 | 0.00 | 0.46 | 0.00 | 94 | 1011.4 |
| 20260507001550 | 14 | 73 | 1.6 | 3.2 | 0.00 | 0.46 | 0.00 | 94 | 1011.4 |
| 20260507001050 | 14 | 20 | 0.0 | 3.2 | 0.00 | 0.46 | 0.00 | 94 | 1011.4 |
| 20260507000550 | 14 | 24 | 0.0 | 0.0 | 0.00 | 0.46 | 0.00 | 94 | 1011.4 |
| 20260507000049 | 14 | 18 | 0.0 | 0.0 | 0.00 | 0.46 | 0.00 | 94 | 1011.6 |
| 20260506235549 | 14 | 57 | 0.0 | 0.0 | 0.00 | 0.46 | 0.00 | 94 | 1011.6 |
| 20260506235048 | 14 | 57 | 0.0 | 0.0 | 0.00 | 0.46 | 0.00 | 94 | 1011.7 |
| 20260506234548 | 14 | 57 | 0.0 | 0.0 | 0.00 | 0.46 | 0.00 | 94 | 1011.6 |
| 20260506234048 | 14 | 57 | 0.0 | 0.0 | 0.00 | 0.46 | 0.00 | 94 | 1011.7 |
| 20260506233548 | 13 | 57 | 0.0 | 0.0 | 0.00 | 0.46 | 0.00 | 94 | 1011.6 |
| 20260506233047 | 13 | 57 | 0.0 | 0.0 | 0.00 | 0.46 | 0.00 | 94 | 1011.6 |
| 20260506232546 | 13 | 57 | 1.6 | 1.6 | 0.00 | 0.46 | 0.00 | 94 | 1011.6 |
| 20260506232046 | 14 | 66 | 1.6 | 1.6 | 0.00 | 0.46 | 0.00 | 94 | 1011.5 |
| 20260506231546 | 14 | 72 | 0.0 | 0.0 | 0.00 | 0.46 | 0.00 | 94 | 1011.5 |
| 20260506231045 | 14 | 72 | 0.0 | 0.0 | 0.00 | 0.46 | 0.00 | 94 | 1011.5 |
| 20260506230545 | 14 | 72 | 0.0 | 0.0 | 0.00 | 0.46 | 0.00 | 94 | 1011.6 |
| 20260506230044 | 14 | 72 | 0.0 | 1.6 | 0.00 | 0.46 | 0.00 | 94 | 1011.5 |
| 20260506225544 | 14 | 61 | 0.0 | 0.0 | 0.00 | 0.46 | 0.00 | 94 | 1011.5 |
| 20260506225044 | 14 | 61 | 0.0 | 0.0 | 0.00 | 0.46 | 0.00 | 94 | 1011.6 |
| 20260506224543 | 14 | 61 | 0.0 | 1.6 | 0.00 | 0.46 | 0.00 | 93 | 1011.5 |
| 20260506224043 | 14 | 61 | 1.6 | 1.6 | 0.00 | 0.46 | 0.00 | 93 | 1011.5 |
| 20260506223542 | 14 | 61 | 4.8 | 6.4 | 0.00 | 0.46 | 0.00 | 93 | 1011.5 |
| 20260506223042 | 14 | 56 | 0.0 | 1.6 | 0.00 | 0.46 | 0.00 | 93 | 1011.5 |
| 20260506222541 | 14 | 56 | 0.0 | 0.0 | 0.00 | 0.46 | 0.00 | 93 | 1011.5 |
| 20260506222041 | 14 | 60 | 0.0 | 1.6 | 0.00 | 0.46 | 0.00 | 93 | 1011.6 |
| 20260506221541 | 14 | 56 | 0.0 | 0.0 | 0.00 | 0.46 | 0.00 | 93 | 1011.6 |
| 20260506221040 | 14 | 56 | 0.0 | 0.0 | 0.00 | 0.46 | 0.00 | 93 | 1011.6 |
| 20260506220540 | 14 | 56 | 0.0 | 0.0 | 0.00 | 0.46 | 0.00 | 93 | 1011.5 |
| 20260506220039 | 14 | 56 | 0.0 | 0.0 | 0.00 | 0.46 | 0.00 | 93 | 1011.4 |
| 20260506215539 | 14 | 63 | 0.0 | 0.0 | 0.00 | 0.46 | 0.46 | 93 | 1011.4 |
| 20260506214538 | 14 | 67 | 0.0 | 1.6 | 0.00 | 0.46 | 0.46 | 93 | 1011.4 |
| 20260506214038 | 15 | 72 | 0.0 | 0.0 | 0.00 | 0.46 | 0.46 | 92 | 1011.3 |
| 20260506213537 | 15 | 72 | 0.0 | 0.0 | 0.00 | 0.46 | 0.46 | 92 | 1011.3 |
| 20260506213037 | 15 | 72 | 0.0 | 0.0 | 0.00 | 0.46 | 0.46 | 92 | 1011.4 |
| 20260506212537 | 15 | 70 | 0.0 | 1.6 | 0.00 | 0.46 | 0.46 | 92 | 1011.4 |
| 20260506211536 | 15 | 70 | 0.0 | 1.6 | 0.00 | 0.46 | 0.46 | 92 | 1011.5 |
| 20260506211035 | 15 | 70 | 0.0 | 3.2 | 0.00 | 0.46 | 0.46 | 92 | 1011.4 |
| 20260506210535 | 15 | 70 | 0.0 | 1.6 | 0.00 | 0.46 | 0.46 | 92 | 1011.3 |
| 20260506210034 | 15 | 70 | 0.0 | 1.6 | 0.00 | 0.46 | 0.46 | 92 | 1011.3 |
| 20260506205534 | 15 | 70 | 0.0 | 3.2 | 0.00 | 0.46 | 0.46 | 91 | 1011.3 |
| 20260506204533 | 15 | 73 | 3.2 | 4.8 | 0.00 | 0.46 | 0.46 | 91 | 1011.2 |
| 20260506204033 | 15 | 76 | 3.2 | 6.4 | 0.00 | 0.46 | 0.46 | 91 | 1011.4 |
| 20260506203532 | 15 | 69 | 1.6 | 3.2 | 0.00 | 0.46 | 0.46 | 91 | 1011.4 |
| 20260506203032 | 15 | 69 | 0.0 | 1.6 | 0.00 | 0.46 | 0.46 | 92 | 1011.3 |
| 20260506202532 | 15 | 69 | 1.6 | 4.8 | 0.00 | 0.46 | 0.46 | 91 | 1011.3 |
| 20260506202031 | 15 | 73 | 1.6 | 4.8 | 0.00 | 0.46 | 0.46 | 91 | 1011.2 |
| 20260506201531 | 15 | 81 | 1.6 | 4.8 | 0.00 | 0.46 | 0.46 | 92 | 1011.2 |
| 20260506201030 | 15 | 76 | 3.2 | 4.8 | 0.00 | 0.46 | 0.46 | 92 | 1011.1 |
| 20260506200530 | 15 | 294 | 0.0 | 1.6 | 0.00 | 0.46 | 0.46 | 92 | 1011.1 |
| 20260506200029 | 15 | 45 | 0.0 | 1.6 | 0.00 | 0.46 | 0.46 | 92 | 1011.0 |
| 20260506195529 | 15 | 42 | 1.6 | 3.2 | 0.00 | 0.46 | 0.46 | 92 | 1010.9 |
| 20260506194528 | 15 | 62 | 1.6 | 3.2 | 0.00 | 0.46 | 0.46 | 92 | 1010.9 |
| 20260506194028 | 15 | 67 | 0.0 | 1.6 | 0.00 | 0.46 | 0.46 | 92 | 1010.8 |
| 20260506193527 | 15 | 66 | 0.0 | 1.6 | 0.00 | 0.46 | 0.46 | 92 | 1010.8 |
| 20260506193027 | 16 | 70 | 0.0 | 1.6 | 0.00 | 0.46 | 0.46 | 92 | 1010.8 |
| 20260506192526 | 16 | 71 | 3.2 | 8.0 | 0.00 | 0.46 | 0.46 | 92 | 1010.7 |
| 20260506192026 | 16 | 72 | 0.0 | 1.6 | 0.00 | 0.46 | 0.46 | 92 | 1010.7 |
| 20260506191526 | 16 | 71 | 0.0 | 3.2 | 0.00 | 0.46 | 0.46 | 92 | 1010.7 |
| 20260506191025 | 16 | 76 | 3.2 | 4.8 | 0.00 | 0.46 | 0.46 | 92 | 1010.7 |
| 20260506190525 | 16 | 67 | 3.2 | 6.4 | 0.00 | 0.46 | 0.46 | 92 | 1010.7 |
| 20260506190024 | 16 | 69 | 0.0 | 1.6 | 0.00 | 0.46 | 0.46 | 91 | 1010.6 |
| 20260506185524 | 16 | 66 | 1.6 | 4.8 | 0.00 | 0.46 | 0.46 | 91 | 1010.5 |
| 20260506185024 | 16 | 78 | 3.2 | 4.8 | 0.00 | 0.46 | 0.46 | 91 | 1010.4 |
| 20260506184523 | 16 | 77 | 1.6 | 3.2 | 0.00 | 0.46 | 0.46 | 91 | 1010.5 |
| 20260506184023 | 16 | 57 | 6.4 | 6.4 | 0.00 | 0.46 | 0.46 | 90 | 1010.3 |
| 20260506183522 | 16 | 65 | 6.4 | 8.0 | 0.00 | 0.46 | 0.46 | 90 | 1010.2 |
| 20260506183023 | 16 | 64 | 8.0 | 9.7 | 0.00 | 0.46 | 0.46 | 90 | 1010.2 |
| 20260506182522 | 16 | 68 | 3.2 | 4.8 | 0.00 | 0.46 | 0.46 | 90 | 1010.2 |
| 20260506182021 | 16 | 59 | 0.0 | 1.6 | 0.00 | 0.46 | 0.46 | 90 | 1010.4 |
| 20260506181521 | 17 | 62 | 0.0 | 1.6 | 0.00 | 0.46 | 0.46 | 90 | 1010.3 |
| 20260506181020 | 17 | 63 | 0.0 | 1.6 | 0.00 | 0.46 | 0.46 | 90 | 1010.3 |
| 20260506180520 | 17 | 64 | 0.0 | 1.6 | 0.00 | 0.46 | 0.46 | 89 | 1010.3 |
| 20260506180019 | 17 | 64 | 0.0 | 1.6 | 0.00 | 0.46 | 0.46 | 89 | 1010.1 |
| 20260506175519 | 17 | 63 | 0.0 | 3.2 | 0.00 | 0.46 | 0.46 | 89 | 1010.1 |
| 20260506175019 | 17 | 64 | 0.0 | 1.6 | 0.00 | 0.46 | 0.46 | 89 | 1010.0 |
| 20260506174518 | 17 | 75 | 3.2 | 6.4 | 0.00 | 0.46 | 0.46 | 88 | 1010.0 |
| 20260506174018 | 17 | 63 | 0.0 | 3.2 | 0.00 | 0.46 | 0.46 | 88 | 1009.8 |
| 20260506173517 | 17 | 75 | 1.6 | 4.8 | 0.00 | 0.46 | 0.46 | 88 | 1009.8 |
| 20260506173018 | 17 | 76 | 4.8 | 6.4 | 0.00 | 0.46 | 0.46 | 87 | 1009.9 |
| 20260506172517 | 17 | 77 | 1.6 | 4.8 | 0.00 | 0.46 | 0.46 | 87 | 1009.8 |
| 20260506171516 | 17 | 57 | 0.0 | 1.6 | 0.00 | 0.46 | 0.46 | 87 | 1009.9 |
| 20260506171015 | 17 | 71 | 0.0 | 1.6 | 0.00 | 0.46 | 0.46 | 87 | 1009.8 |
| 20260506170515 | 17 | 76 | 0.0 | 1.6 | 0.00 | 0.46 | 0.46 | 87 | 1009.8 |
| 20260506170015 | 17 | 76 | 0.0 | 1.6 | 0.00 | 0.46 | 0.46 | 87 | 1009.7 |
| 20260506165514 | 17 | 76 | 1.6 | 3.2 | 0.00 | 0.46 | 0.46 | 86 | 1009.8 |
| 20260506165014 | 17 | 78 | 0.0 | 1.6 | 0.00 | 0.46 | 0.46 | 86 | 1009.8 |
| 20260506164513 | 17 | 72 | 3.2 | 4.8 | 0.00 | 0.46 | 0.46 | 85 | 1009.7 |
| 20260506164013 | 17 | 79 | 0.0 | 1.6 | 0.00 | 0.46 | 0.46 | 85 | 1009.8 |
| 20260506163512 | 17 | 79 | 0.0 | 1.6 | 0.00 | 0.46 | 0.46 | 85 | 1009.8 |
| 20260506163012 | 17 | 79 | 3.2 | 4.8 | 0.00 | 0.46 | 0.46 | 85 | 1010.0 |
| 20260506162512 | 17 | 72 | 0.0 | 4.8 | 0.00 | 0.46 | 0.46 | 84 | 1010.0 |
| 20260506162011 | 17 | 65 | 0.0 | 1.6 | 0.00 | 0.46 | 0.46 | 84 | 1009.9 |
| 20260506161511 | 17 | 65 | 1.6 | 1.6 | 0.00 | 0.46 | 0.46 | 86 | 1010.1 |
| 20260506161010 | 17 | 87 | 0.0 | 1.6 | 0.00 | 0.46 | 0.46 | 87 | 1009.9 |
| 20260506160510 | 17 | 88 | 0.0 | 3.2 | 0.00 | 0.46 | 0.46 | 88 | 1009.9 |
| 20260506160010 | 17 | 88 | 1.6 | 1.6 | 0.00 | 0.46 | 0.46 | 88 | 1009.8 |
| 20260506155509 | 17 | 79 | 3.2 | 6.4 | 0.00 | 0.46 | 0.46 | 88 | 1009.9 |
| 20260506155009 | 17 | 69 | 0.0 | 4.8 | 0.00 | 0.46 | 0.46 | 88 | 1010.0 |
| 20260506154508 | 17 | 65 | 4.8 | 8.0 | 0.00 | 0.46 | 0.46 | 89 | 1009.9 |
| 20260506154008 | 17 | 56 | 1.6 | 4.8 | 0.00 | 0.46 | 0.46 | 88 | 1009.9 |
| 20260506153507 | 17 | 76 | 0.0 | 0.0 | 0.00 | 0.46 | 0.46 | 88 | 1009.9 |
| 20260506153007 | 17 | 78 | 0.0 | 1.6 | 0.00 | 0.46 | 0.46 | 89 | 1009.9 |
| 20260506152507 | 17 | 78 | 0.0 | 1.6 | 0.00 | 0.46 | 0.46 | 89 | 1010.0 |
| 20260506152006 | 17 | 89 | 3.2 | 4.8 | 0.00 | 0.46 | 0.46 | 89 | 1009.8 |
| 20260506151506 | 17 | 101 | 0.0 | 3.2 | 0.00 | 0.46 | 0.46 | 89 | 1009.9 |
| 20260506151006 | 17 | 75 | 3.2 | 6.4 | 0.00 | 0.46 | 0.46 | 89 | 1009.9 |
| 20260506150506 | 17 | 75 | 4.8 | 6.4 | 0.00 | 0.46 | 0.46 | 89 | 1009.9 |
| 20260506150006 | 17 | 62 | 0.0 | 1.6 | 0.00 | 0.46 | 0.46 | 89 | 1010.0 |
| 20260506145506 | 17 | 62 | 0.0 | 1.6 | 0.00 | 0.46 | 0.46 | 90 | 1010.1 |
| 20260506145006 | 17 | 74 | 3.2 | 3.2 | 0.00 | 0.46 | 0.46 | 91 | 1010.1 |
| 20260506144506 | 17 | 74 | 3.2 | 4.8 | 0.00 | 0.46 | 0.46 | 90 | 1010.1 |
| 20260506144006 | 17 | 66 | 0.0 | 1.6 | 0.03 | 0.46 | 0.46 | 91 | 1010.1 |
| 20260506143505 | 16 | 66 | 0.0 | 3.2 | 0.03 | 0.46 | 0.46 | 91 | 1010.1 |
| 20260506143005 | 16 | 67 | 1.6 | 4.8 | 0.08 | 0.46 | 0.46 | 91 | 1010.1 |
| 20260506142505 | 16 | 79 | 0.0 | 4.8 | 0.10 | 0.46 | 0.46 | 92 | 1010.0 |
| 20260506142005 | 16 | 83 | 1.6 | 4.8 | 0.10 | 0.46 | 0.46 | 92 | 1010.0 |
| 20260506141505 | 16 | 74 | 4.8 | 8.0 | 0.15 | 0.46 | 0.46 | 92 | 1010.0 |
| 20260506141005 | 16 | 75 | 3.2 | 6.4 | 0.18 | 0.46 | 0.46 | 93 | 1010.0 |
| 20260506140505 | 16 | 69 | 0.0 | 9.7 | 0.28 | 0.46 | 0.46 | 93 | 1010.1 |
| 20260506140005 | 16 | 82 | 3.2 | 8.0 | 0.30 | 0.51 | 0.46 | 94 | 1010.1 |
| 20260506135505 | 16 | 68 | 0.0 | 1.6 | 0.30 | 0.51 | 0.46 | 94 | 1010.1 |
| 20260506135005 | 16 | 68 | 0.0 | 1.6 | 0.30 | 0.51 | 0.46 | 94 | 1010.2 |
| 20260506134505 | 16 | 82 | 0.0 | 4.8 | 0.30 | 0.51 | 0.46 | 93 | 1010.3 |
| 20260506133505 | 16 | 76 | 1.6 | 4.8 | 0.28 | 0.46 | 0.43 | 93 | 1010.5 |
| 20260506133005 | 16 | 79 | 3.2 | 4.8 | 0.23 | 0.43 | 0.38 | 92 | 1010.5 |
| 20260506132505 | 16 | 90 | 3.2 | 6.4 | 0.18 | 0.38 | 0.36 | 92 | 1010.5 |
| 20260506132005 | 16 | 76 | 3.2 | 8.0 | 0.18 | 0.38 | 0.36 | 92 | 1010.6 |
| 20260506131505 | 16 | 86 | 3.2 | 8.0 | 0.15 | 0.36 | 0.30 | 91 | 1010.6 |
| 20260506131005 | 16 | 97 | 1.6 | 4.8 | 0.10 | 0.30 | 0.28 | 91 | 1010.6 |
| 20260506130505 | 17 | 81 | 3.2 | 8.0 | 0.03 | 0.23 | 0.18 | 88 | 1010.6 |
| 20260506130014 | 17 | 69 | 3.2 | 6.4 | 0.00 | 0.18 | 0.15 | 86 | 1010.7 |
| 20260506130006 | 17 | 69 | 3.2 | 6.4 | 0.00 | 0.18 | 0.15 | 86 | 1010.7 |
| 20260506125505 | 17 | 109 | 0.0 | 3.2 | 0.00 | 0.18 | 0.15 | 87 | 1010.6 |
| 20260506125005 | 17 | 129 | 0.0 | 1.6 | 0.00 | 0.18 | 0.15 | 87 | 1010.7 |
| 20260506124505 | 17 | 102 | 0.0 | 1.6 | 0.00 | 0.18 | 0.15 | 87 | 1010.6 |
| 20260506124005 | 17 | 76 | 4.8 | 6.4 | 0.00 | 0.18 | 0.15 | 85 | 1010.7 |
| 20260506123505 | 17 | 107 | 1.6 | 4.8 | 0.00 | 0.23 | 0.15 | 83 | 1010.7 |
| 20260506123005 | 17 | 81 | 0.0 | 3.2 | 0.00 | 0.23 | 0.15 | 83 | 1010.7 |
| 20260506122505 | 17 | 91 | 3.2 | 9.7 | 0.00 | 0.23 | 0.15 | 81 | 1010.8 |
| 20260506122005 | 17 | 81 | 1.6 | 4.8 | 0.00 | 0.23 | 0.15 | 82 | 1010.8 |
| 20260506121504 | 18 | 84 | 3.2 | 6.4 | 0.00 | 0.23 | 0.15 | 81 | 1010.7 |
| 20260506121004 | 17 | 78 | 3.2 | 6.4 | 0.00 | 0.23 | 0.15 | 82 | 1010.7 |
| 20260506120504 | 17 | 69 | 3.2 | 8.0 | 0.00 | 0.23 | 0.15 | 83 | 1010.8 |
| 20260506120004 | 17 | 71 | 6.4 | 9.7 | 0.00 | 0.23 | 0.15 | 82 | 1010.8 |
| 20260506115504 | 17 | 70 | 3.2 | 8.0 | 0.00 | 0.23 | 0.15 | 83 | 1011.0 |
| 20260506115004 | 17 | 85 | 1.6 | 4.8 | 0.00 | 0.23 | 0.15 | 83 | 1011.0 |